Location: Duncanville
(32.6518°N, 96.9083°W)
Time: 10:37:31
(UTC+00:00)

Cosmos 2208 Rocket - Pass Details

Date: 11 February 2026
Orbit: 749 x 802 km, 74.0° (Epoch: 8 March)

Event Time Altitude Azimuth Distance (km) Brightness Sun altitude
Rises 12:09:32 0° 341° (NNW) 3,306 7.0 -14.2°
Reaches altitude 10° 12:11:56 10° 340° (NNW) 2,376 6.3 -13.7°
Maximum altitude 12:17:21 77° 255° (WSW) 823 4.0 -12.5°
Drops below altitude 10° 12:22:44 10° 170° (S) 2,366 6.8 -11.4°
Sets 12:25:08 0° 169° (S) 3,290 7.6 -10.9°
